Flag for U.S.A. Weather past 2 weeks in Clarksville, Tennessee, U.S.A.

Now
47 °F

Broken clouds.


Feels Like: 41 °F
Forecast: 30 / 46 °F
Wind: 14 mph from North

Location: Outlaw Field

Current Time: Mar 27, 2015 at 12:18:32 PM

Latest Report: Mar 27, 2015 at 11:52 AM


Visibility: 10 mi

Pressure: 30.03 "Hg

Humidity: 56%

Dew point: 32 °F

Location of ClarksvilleLocation

Historic Weather in Clarksville — Graph

°F

Clarksville temperature yesterday

Maximum temperature yesterday: 67 °F (at 12:52 AM)
Minimum temperature yesterday: 37 °F (at 10:52 PM)
Average temperature yesterday: 49 °F

Past Weeks' High & Low Weather Summary

 TemperatureHumidityPressure
High77 °F (Mar 16, 3:52 PM)100% (Mar 16, 7:03 AM)30.35 "Hg (Mar 16, 7:03 AM)
Low32 °F (Mar 27, 3:52 AM)28% (Mar 23, 3:52 PM)29.82 "Hg (Mar 26, 3:52 AM)
Average54 °F71%30.10 "Hg
* Reported Mar 12 10:52 AM — Mar 27 10:52 AM, Clarksville, Weather by CustomWeather, © 2015

Note: Actual official high and low records may vary slightly from our data, if they occured in-between our weather recording intervals... More about our weather records

Advertising

Clarksville weather history for previous 24 hours

 ConditionsComfort  
Time TempWeatherWind HumidityBarometerVisibility
10:52 AM
Fri, Mar 27
45 °FPassing clouds.8 mph71%30.04 "Hg10 mi
9:52 AM41 °FScattered clouds.10 mph82%30.05 "Hg10 mi
8:52 AM38 °FPartly sunny.7 mph90%30.04 "Hg10 mi
7:52 AM34 °FSunny.6 mph92%30.03 "Hg7 mi
6:52 AM32 °FIce fog.3 mph96%30.01 "Hg5 mi
5:52 AM32 °FClear.5 mph96%30.00 "Hg7 mi
4:52 AM32 °FClear.5 mph96%30.00 "Hg7 mi
3:52 AM32 °FIce fog.5 mph100%29.98 "Hg5 mi
2:52 AM34 °FFog.No wind97%29.99 "Hg6 mi
1:52 AM35 °FClear.No wind92%30.01 "Hg9 mi
12:52 AM34 °FClear.6 mph97%30.03 "Hg10 mi
11:52 PM
Thu, Mar 26
37 °FClear.6 mph89%30.03 "Hg10 mi
10:52 PM37 °FClear.8 mph89%30.03 "Hg10 mi
9:52 PM39 °FPassing clouds.7 mph93%30.05 "Hg10 mi
8:52 PM41 °FPassing clouds.6 mph89%30.05 "Hg10 mi
7:52 PM41 °FPassing clouds.7 mph89%30.00 "Hg10 mi
6:52 PM42 °FMostly cloudy.15 mph85%29.98 "Hg10 mi
5:52 PM43 °FLight rain. More clouds than sun.8 mph89%29.97 "Hg10 mi
4:52 PM44 °FOvercast.12 mph89%29.96 "Hg10 mi
3:52 PM44 °FLight rain. More clouds than sun.20 mph89%29.96 "Hg10 mi
2:52 PM44 °FLight rain. Fog.20 mph96%29.96 "Hg2 mi
1:52 PM45 °FLight rain. Fog.14 mph97%29.95 "Hg2 mi
12:52 PM48 °FMostly cloudy.15 mph89%29.93 "Hg8 mi
Weather by CustomWeather, © 2015

See weather overviewHow to use our weather pages